Weather History for Burbank, CA

Change the Weather History Date:

Saturday, January 25, 2014

  Actual Average Record
Temperature  
Mean Temperature 69 °F 55 °F  
Max Temperature 80 °F 68 °F 85 °F (1951)
Min Temperature 58 °F 42 °F 29 °F (1978)
Degree Days  
Heating Degree Days 0 10  
Month to date heating degree days 49 256  
Since 1 July heating degree days 347 823  
Cooling Degree Days 4 0  
Month to date cooling degree days 37 0  
Year to date cooling degree days 37 0  
Growing Degree Days 18 (Base 50)    
Moisture  
Dew Point 34 °F    
Average Humidity 31    
Maximum Humidity 48    
Minimum Humidity 13    
Precipitation  
Precipitation 0.00 in 0.12 in 4.29 in (1969)
Month to date precipitation T 2.80  
Year to date precipitation T 2.80  
Since 1 July precipitation 0.43 7.56  
Sea Level Pressure  
Sea Level Pressure 30.13 in    
Wind  
Wind Speed 3 mph (SSE)    
Max Wind Speed 12 mph    
Max Gust Speed 14 mph    
Visibility 10 miles    
Events      
T = Trace of Precipitation, MM = Missing Value Source: NWS Daily Summary

Daily Weather History Graph

Daily Weather History Graph

Search for Another Location

Airport:

Trip Planner

Search our weather history database for the weather conditions in past years. The results will help you decide how hot, cold, wet, or windy it might be!

Date:

Astronomy

Jan. 25, 2014 Rise Set
Actual Time 6:55 AM PST 5:16 PM PST
Civil Twilight 6:28 AM PST 5:43 PM PST
Nautical Twilight 5:58 AM PST 6:13 PM PST
Astronomical Twilight 5:28 AM PST 6:43 PM PST
Moon 1:33 AM PST (1/25) 12:20 PM PST (1/25)
Length of Visible Light 11h 15m
Length of Day
10h 21m
Waning Crescent, 33% of the Moon is Illuminated
Jan 25
Waning Crescent
Jan 30
New
Feb 6
First Quarter
Feb 14
Full
Feb 22
Last Quarter

Hourly Weather History & Observations

Time (PST) Temp. Dew Point Humidity Pressure Visibility Wind Dir Wind Speed Gust Speed Precip Events Conditions
12:53 AM 64.0 °F 42.1 °F 45% 30.16 in 10.0 mi WNW 5.8 mph - N/A   Partly Cloudy
1:53 AM 64.0 °F 35.1 °F 34% 30.14 in 10.0 mi NW 4.6 mph - N/A   Mostly Cloudy
2:53 AM 63.0 °F 34.0 °F 34% 30.15 in 10.0 mi East 4.6 mph - N/A   Overcast
3:53 AM 62.1 °F 43.0 °F 50% 30.15 in 10.0 mi Calm Calm - N/A   Mostly Cloudy
4:53 AM 62.1 °F 42.1 °F 48% 30.16 in 10.0 mi Calm Calm - N/A   Overcast
5:53 AM 62.1 °F 36.0 °F 38% 30.17 in 10.0 mi Calm Calm - N/A   Overcast
6:53 AM 61.0 °F 35.1 °F 38% 30.17 in 10.0 mi Calm Calm - N/A   Clear
7:53 AM 61.0 °F 36.0 °F 39% 30.18 in 10.0 mi Calm Calm - N/A   Clear
8:53 AM 66.0 °F 34.0 °F 30% 30.18 in 10.0 mi Calm Calm - N/A   Clear
9:53 AM 72.0 °F 30.9 °F 22% 30.19 in 10.0 mi Calm Calm - N/A   Clear
10:53 AM 75.0 °F 21.0 °F 13% 30.17 in 10.0 mi Calm Calm - N/A   Clear
11:53 AM 77.0 °F 23.0 °F 13% 30.14 in 10.0 mi Calm Calm - N/A   Clear
12:53 PM 77.0 °F 23.0 °F 13% 30.10 in 10.0 mi Variable 5.8 mph - N/A   Scattered Clouds
1:53 PM 78.1 °F 25.0 °F 14% 30.08 in 10.0 mi South 6.9 mph - N/A   Mostly Cloudy
2:53 PM 77.0 °F 33.1 °F 20% 30.08 in 10.0 mi SSW 9.2 mph - N/A   Clear
3:53 PM 75.0 °F 32.0 °F 21% 30.08 in 10.0 mi SSW 8.1 mph - N/A   Clear
4:53 PM 73.0 °F 32.0 °F 22% 30.08 in 10.0 mi South 5.8 mph - N/A   Clear
5:53 PM 70.0 °F 34.0 °F 27% 30.08 in 10.0 mi East 3.5 mph - N/A   Clear
6:53 PM 68.0 °F 34.0 °F 28% 30.10 in 10.0 mi Calm Calm - N/A   Clear
7:53 PM 66.0 °F 36.0 °F 33% 30.09 in 10.0 mi Calm Calm - N/A   Clear
8:53 PM 64.0 °F 36.0 °F 35% 30.09 in 10.0 mi Calm Calm - N/A   Clear
9:53 PM 63.0 °F 37.0 °F 38% 30.10 in 10.0 mi East 3.5 mph - N/A   Clear
10:53 PM 59.0 °F 35.1 °F 41% 30.10 in 10.0 mi Calm Calm - N/A   Clear
11:53 PM 60.1 °F 39.0 °F 46% 30.11 in 10.0 mi East 3.5 mph - N/A   Clear